Location: Sternwarte-Kraichtal
(49.1689°N, 8.6996°E)
Time: 22:12:24
(UTC+01:00)

Tiangong - Visible Passes

Search period start: 24 January 2022 00:00
Search period end: 03 February 2022 00:00
Orbit: 383 x 386 km, 41.5° (Epoch: 23 January)

Date Brightness Start Highest point End Pass type
(mag) Time Alt. Az. Time Alt. Az. Time Alt. Az.
29 Jan 3.4 19:01:26 10° SSW 19:03:14 14° SSE 19:03:23 14° SSE visible
30 Jan 3.7 18:02:50 10° S 18:03:40 11° SSE 18:04:30 10° SE visible
30 Jan 3.5 19:37:23 10° SW 19:38:41 17° SSW 19:38:41 17° SSW visible
31 Jan 3.2 18:37:55 10° SSW 18:40:07 17° S 18:41:44 13° SE visible
01 Feb 3.0 19:14:12 10° SW 19:16:38 20° S 19:16:57 20° S visible
02 Feb 3.2 18:14:32 10° SW 18:16:55 20° S 18:19:19 10° SE visible
02 Feb 3.8 19:50:58 10° SW 19:52:10 15° SW 19:52:10 15° SW visible
